Weather in Shishino

Russia / Kemerovo Oblast     55°21′51″N   85°13′34″E
temp.,
°C
wind,
m/s
gust,
m/s
humid.,
%
clouds,
%
prec.,
mm/h
press.,
hPa
HPBL,
m
18 april, sun
sun1801:00−4s2586100 0.0 102292
04:00−3s4885100 0.0 1019267
07:00−2sw41082100 0.0 1018444
10:00+1sw6107898 0.0 1016808
13:00+4sw71068100 0.0 10141372
16:00+5sw61066100 0.0 10131365
19:00+3ssw61073100 0.1 1010485
22:00+1s51198100 2.3 1006355
19 april, mon
mon1901:00+2ssw61298100 5.4 1001558
04:00+2wsw81596100 1.3 9981037
07:00−5nw131589100 1.6 1004927
10:00−7nw101374100 0.3 10141159
13:00−5nw81056100 0.3 10191556
16:00−4wnw7951100 0.0 10211967
19:00−5nw7860100 0.1 10231398
22:00−6nw586486 0.1 10251291
20 april, tue
tue2001:00−7nw576690 0.1 10251065
04:00−7nw4669100 0.1 1025967
07:00−7nw466889 0.1 1026863
10:00−6nw4460100 0.0 10271066
13:00−3wnw4450100 0.0 10261351
16:00−1wnw4544100 0.0 10251685
19:00−1wnw454280 0.0 10241606
22:00−3wsw255833 0.0 1025155
21 april, wed
wed2101:00−3sw3760100 0.0 1024584
04:00−3ssw4758100 0.0 1023578
07:00−3ssw5757100 0.0 10221312
10:00−2ssw5661100 0.0 10231136
13:00−1ssw4555100 0.1 10231374
16:00+1sse2347100 0.1 10231429
19:00+1ene3355100 0.2 1024840
22:00−1ene247151 0.0 102787
22 april, thu
thu2201:00−3ne38845 0.0 1028263
04:00−3ne510785 0.0 1030443
07:00−3nne611717 0.0 1033470
10:000ne79535 0.0 10351125
13:00+2ne7744100 0.0 10362026
16:00+2nne6746100 0.0 10371806
19:00+1ne575595 0.1 10391155
22:00−2nne411705 0.0 1041304